WetterOnline ( https://www.wetteronline.de )

Wetter aktuell Ludwigsfelde

Aktuelles Wetter: Berlin-Dahlem (70m)

6-stündlich | Neueste Meldungen
Ortszeit Temperatur Wetter
Fr, 27.11. 7:00 6.6° C leichter Regen
Fr, 27.11. 1:00 7.2° C Sprühregen
Do, 26.11. 19:00 6.5° C bedeckt
Do, 26.11. 13:00 4.7° C bedeckt
Do, 26.11. 7:00 1.2° C bewölkt
Do, 26.11. 1:00 -0.2° C wolkenlos
Mi, 25.11. 19:00 -0.4° C wolkenlos
Mi, 25.11. 13:00 1.9° C bedeckt
Ortszeit Temperatur Wetter
Fr, 27.11. 12:00 7.4° C wolkig
Fr, 27.11. 11:00 7.2° C wolkig
Fr, 27.11. 10:00 6.8° C bewölkt, nach Nebel
Fr, 27.11. 9:00 6.5° C leichter Regen
Fr, 27.11. 8:00 6.6° C leichter Regen
Fr, 27.11. 7:00 6.6° C leichter Regen
Ortszeit Relative Feuchte Sichtweite
Fr, 27.11. 7:00 100% 0.6 km
Fr, 27.11. 1:00 99% 3.5 km
Do, 26.11. 19:00 99% 6 km
Do, 26.11. 13:00 93% 7 km
Do, 26.11. 7:00 100% 6 km
Do, 26.11. 1:00 99% 20 km
Mi, 25.11. 19:00 100% 20 km
Mi, 25.11. 13:00 100% 3.7 km
Ortszeit Relative Feuchte Sichtweite
Fr, 27.11. 12:00 91% 10 km
Fr, 27.11. 11:00 98% 7 km
Fr, 27.11. 10:00 100% 3.0 km
Fr, 27.11. 9:00 100% 0.9 km
Fr, 27.11. 8:00 100% 0.9 km
Fr, 27.11. 7:00 100% 0.6 km
Ortszeit Niederschlagsmenge Niederschlagsart
Fr, 27.11. 7:00 0.1 l/m2 in 12 Std. Regen, Nebel
Fr, 27.11. 1:00 0.1 l/m2 in 6 Std. -
Do, 26.11. 19:00 0.8 l/m2 in 12 Std. Regen
Do, 26.11. 13:00 0.1 l/m2 in 6 Std. Sprühregen
Do, 26.11. 7:00 0.0 l/m2 in 12 Std. -
Do, 26.11. 1:00 0.0 l/m2 in 6 Std. -
Mi, 25.11. 19:00 0.0 l/m2 in 12 Std. -
Mi, 25.11. 13:00 0.0 l/m2 in 6 Std. Nebel
Ortszeit Niederschlagsmenge Niederschlagsart
Fr, 27.11. 12:00 keine Meldung -
Fr, 27.11. 11:00 keine Meldung -
Fr, 27.11. 10:00 keine Meldung -
Fr, 27.11. 9:00 keine Meldung -
Fr, 27.11. 8:00 keine Meldung -
Fr, 27.11. 7:00 keine Meldung -
Ortszeit Stärke Spitze Richtung
km/h Bft. km/h Grad Sektor
Fr, 27.11. 7:00 4 1 - 250° W
Fr, 27.11. 1:00 4 1 - 270° W
Do, 26.11. 19:00 11 2 - 270° W
Do, 26.11. 13:00 11 2 - 210° SW
Do, 26.11. 7:00 14 3 - 210° SW
Do, 26.11. 1:00 14 3 - 210° SW
Mi, 25.11. 19:00 11 2 - 130° SO
Mi, 25.11. 13:00 11 2 - 210° SW
Ortszeit Stärke Spitze Richtung
km/h Bft. km/h Grad Sektor
Fr, 27.11. 12:00 7 2 - 30° NO
Fr, 27.11. 11:00 4 1 - 330° NW
Fr, 27.11. 10:00 4 1 - 300° NW
Fr, 27.11. 9:00 4 1 - 300° NW
Fr, 27.11. 8:00 4 1 - 290° W
Fr, 27.11. 7:00 4 1 - 250° W
Ortszeit Untergrenze Bedeckung Gattung
total tief tief mittel hoch
Fr, 27.11. 7:00 - 8/8 - - - -
Fr, 27.11. 1:00 90 m 8/8 8/8 St - -
Do, 26.11. 19:00 120 m 8/8 8/8 St - -
Do, 26.11. 13:00 330 m 8/8 7/8 St - -
Do, 26.11. 7:00 660 m 7/8 7/8 Sc - -
Do, 26.11. 1:00 - 0/8 0/8 - - -
Mi, 25.11. 19:00 - 0/8 0/8 - - -
Mi, 25.11. 13:00 90 m 8/8 8/8 St - -
Ortszeit Bedeckungsgrad in Achtel und Wolkenuntergrenze
Fr, 27.11. 12:00 5(270m)
Fr, 27.11. 11:00 5(210m) 3(1500m)
Fr, 27.11. 10:00 4(180m) 7(1500m)
Fr, 27.11. 9:00 8(60m)
Fr, 27.11. 8:00 8(60m)
Fr, 27.11. 7:00 8
Ortszeit Luftdruck NN (hPa) Tendenz (hPa in 3 Std.)
Fr, 27.11. 7:00 1021 + 0,3
Fr, 27.11. 1:00 1021 + 0,3
Do, 26.11. 19:00 1021 + 0,6
Do, 26.11. 13:00 1020 - 0,7
Do, 26.11. 7:00 1020 0,0
Do, 26.11. 1:00 1020 + 0,3
Mi, 25.11. 19:00 1020 + 0,1
Mi, 25.11. 13:00 1020 - 0,7
Ortszeit Luftdruck NN (hPa) Tendenz (hPa in 3 Std.)
Fr, 27.11. 12:00 1022 + 0,2
Fr, 27.11. 11:00 1022 + 0,8
Fr, 27.11. 10:00 1022 + 1,0
Fr, 27.11. 9:00 1022 + 1,0
Fr, 27.11. 8:00 1022 + 0,7
Fr, 27.11. 7:00 1021 + 0,3
Ortszeit Schneehöhe (cm)
Fr, 27.11. 7:00 0
Fr, 27.11. 1:00 0
Do, 26.11. 19:00 0
Do, 26.11. 13:00 0
Do, 26.11. 7:00 0
Do, 26.11. 1:00 0
Mi, 25.11. 19:00 0
Mi, 25.11. 13:00 0
Ortszeit Schneehöhe (cm)
Fr, 27.11. 12:00 -
Fr, 27.11. 11:00 -
Fr, 27.11. 10:00 -
Fr, 27.11. 9:00 -
Fr, 27.11. 8:00 -
Fr, 27.11. 7:00 0
Link zu dieser Seite / Seite empfehlen

Das Wetter in ...